This is the latest recevied weather packets stored in our database for station/object KC0UFP. If no packets are shown the sender has not sent any weather packets the latest 10 day(s).
| Time | Temp. | Humidity | Pressure | Rain* | Wind** | Luminosity | Snow |
|---|---|---|---|---|---|---|---|
| 1778074556 | 10° C | 88% | 1014.7 hPa | 0 mm | - | 113 W/m² | - |
| 1778074253 | 9.44° C | 87% | 1014.6 hPa | 0 mm | - | 80 W/m² | - |
| 1778073951 | 9.44° C | 88% | 1014.8 hPa | 0 mm | - | 72 W/m² | - |
| 1778073648 | 9.44° C | 89% | 1014.3 hPa | 0 mm | - | 88 W/m² | - |
| 1778073345 | 9.44° C | 88% | 1014 hPa | 0 mm | - | 113 W/m² | - |
| 1778073041 | 9.44° C | 88% | 1013.9 hPa | 0 mm | - | 104 W/m² | - |
| 1778072738 | 9.44° C | 89% | 1014 hPa | 0 mm | - | 86 W/m² | - |
| 1778072436 | 9.44° C | 89% | 1014 hPa | 0 mm | - | 92 W/m² | - |
| 1778072134 | 9.44° C | 89% | 1013.9 hPa | 0 mm | - | 99 W/m² | - |
| 1778071831 | 9.44° C | 89% | 1013.7 hPa | 0 mm | - | 72 W/m² | - |
| 1778071529 | 9.44° C | 89% | 1013.6 hPa | 0 mm | - | 82 W/m² | - |
| 1778071227 | 9.44° C | 89% | 1013.5 hPa | 0 mm | - | 95 W/m² | - |
| 1778070924 | 9.44° C | 90% | 1013.6 hPa | 0 mm | - | 83 W/m² | - |
| 1778070622 | 8.89° C | 90% | 1013.3 hPa | 0 mm | - | 87 W/m² | - |
| 1778070318 | 8.89° C | 90% | 1013.4 hPa | 0 mm | - | 88 W/m² | - |
| 1778070017 | 8.89° C | 90% | 1013.7 hPa | 0 mm | - | 58 W/m² | - |
| 1778069714 | 8.89° C | 90% | 1013.4 hPa | 0 mm | - | 35 W/m² | - |
| 1778069410 | 8.89° C | 90% | 1013.3 hPa | 0 mm | - | 39 W/m² | - |
| 1778069108 | 8.89° C | 90% | 1013 hPa | 0 mm | - | 43 W/m² | - |
| 1778068805 | 8.89° C | 91% | 1012.9 hPa | 0 mm | - | 46 W/m² | - |
| 1778068503 | 8.89° C | 91% | 1012.6 hPa | 0 mm | - | 43 W/m² | - |
| 1778068201 | 8.89° C | 91% | 1012.5 hPa | 0 mm | - | 37 W/m² | - |
| 1778067898 | 8.89° C | 92% | 1012.6 hPa | 0 mm | - | 39 W/m² | - |
| 1778067597 | 8.89° C | 92% | 1012.1 hPa | 0 mm | - | 36 W/m² | - |
| 1778067294 | 8.89° C | 91% | 1012.3 hPa | 0 mm | - | 28 W/m² | - |
* Rain latest hour (hover to see other rain measurements)
** Current wind speed in m/s (hover to see current wind gust speed)